Wolf Creek Pass, CO

3:15 PM MDT on May 28, 2017 (GMT -0600)
Wolf Creek Pass

Weather History for KCPW - January, 2014

Change the Weather History Date:

Sunday, January 19, 2014

  Actual Average (KALS) Record (KALS)
Temperature  
Mean Temperature 24 °F -  
Max Temperature 32 °F 34 °F 56 °F (2000)
Min Temperature 17 °F 0 °F -40 °F (1984)
Degree Days  
Heating Degree Days 40    
Moisture  
Dew Point 10 °F    
Average Humidity 59    
Maximum Humidity 74    
Minimum Humidity 39    
Precipitation  
Precipitation 0.00 in - - ()
Sea Level Pressure  
Sea Level Pressure 30.34 in    
Wind  
Wind Speed 14 mph (SW)    
Max Wind Speed 23 mph    
Max Gust Speed 21 mph    
Visibility 10 miles    
Events      
Averages and records for this station are not official NWS values.
T = Trace of Precipitation, MM = Missing Value Source: NWS Daily Summary

Daily Weather History Graph

Daily Weather History Graph

Search for Another Location

Airport or City:

Trip Planner

Search our weather history database for the weather conditions in past years. The results will help you decide how hot, cold, wet, or windy it might be!

Date:

Astronomy

Jan. 19, 2014 Rise Set
Actual Time 7:19 AM MST 5:17 PM MST
Civil Twilight 6:50 AM MST 5:45 PM MST
Nautical Twilight 6:18 AM MST 6:17 PM MST
Astronomical Twilight 5:47 AM MST 6:48 PM MST
Moon 8:52 PM MST (1/19) 8:55 AM MST (1/19)
Length of Visible Light 10h 54m
Length of Day
9h 58m
Waning Gibbous, 89% of the Moon is Illuminated
Jan 19
Waning Gibbous
Jan 23
Last Quarter
Jan 30
New
Feb 6
First Quarter
Feb 14
Full

Hourly Weather History & Observations

Time (MST) Temp. Windchill Dew Point Humidity Pressure Visibility Wind Dir Wind Speed Gust Speed Precip Events Conditions
12:17 AM 21.2 °F 8.3 °F 8.6 °F 58% 30.39 in 10.0 mi SW 13.8 mph - N/A   Clear
12:37 AM 21.2 °F 8.3 °F 8.6 °F 58% 30.39 in 10.0 mi SW 13.8 mph - N/A   Clear
12:57 AM 21.2 °F 7.8 °F 8.6 °F 58% 30.39 in 10.0 mi SW 15.0 mph - N/A   Clear
1:17 AM 21.2 °F 6.8 °F 10.4 °F 63% 30.38 in 10.0 mi SW 17.3 mph - N/A   Clear
1:37 AM 19.4 °F 5.5 °F 8.6 °F 63% 30.38 in 10.0 mi SW 15.0 mph - N/A   Clear
1:57 AM 19.4 °F 4.1 °F 8.6 °F 63% 30.38 in 10.0 mi SW 18.4 mph - N/A   Clear
2:17 AM 21.2 °F 6.0 °F 10.4 °F 63% 30.38 in 10.0 mi SW 19.6 mph - N/A   Clear
2:37 AM 21.2 °F 5.2 °F 10.4 °F 63% 30.38 in 10.0 mi SW 21.9 mph - N/A   Clear
2:57 AM 21.2 °F 4.9 °F 10.4 °F 63% 30.38 in 10.0 mi SW 23.0 mph - N/A   Clear
3:17 AM 21.2 °F 4.9 °F 10.4 °F 63% 30.38 in 10.0 mi SW 23.0 mph - N/A   Clear
3:37 AM 21.2 °F 6.0 °F 10.4 °F 63% 30.38 in 10.0 mi SW 19.6 mph - N/A   Clear
3:57 AM 19.4 °F 3.6 °F 10.4 °F 68% 30.37 in 10.0 mi SW 19.6 mph - N/A   Clear
4:17 AM 19.4 °F 2.5 °F 10.4 °F 68% 30.36 in 10.0 mi SW 23.0 mph - N/A   Clear
4:37 AM 19.4 °F 3.2 °F 10.4 °F 68% 30.36 in 10.0 mi SW 20.7 mph - N/A   Clear
4:57 AM 19.4 °F 3.2 °F 10.4 °F 68% 30.36 in 10.0 mi SW 20.7 mph - N/A   Clear
5:17 AM 19.4 °F 3.2 °F 10.4 °F 68% 30.36 in 10.0 mi SW 20.7 mph - N/A   Clear
5:37 AM 19.4 °F 3.6 °F 10.4 °F 68% 30.36 in 10.0 mi SW 19.6 mph - N/A   Clear
5:57 AM 19.4 °F 3.6 °F 10.4 °F 68% 30.35 in 10.0 mi SW 19.6 mph - N/A   Clear
6:17 AM 19.4 °F 4.1 °F 10.4 °F 68% 30.35 in 10.0 mi SW 18.4 mph - N/A   Clear
6:37 AM 19.4 °F 4.5 °F 10.4 °F 68% 30.36 in 10.0 mi SW 17.3 mph - N/A   Clear
6:57 AM 17.6 °F 1.3 °F 10.4 °F 73% 30.36 in 10.0 mi SW 19.6 mph - N/A   Clear
7:17 AM 17.6 °F 1.7 °F 8.6 °F 68% 30.36 in 10.0 mi SW 18.4 mph - N/A   Clear
7:37 AM 17.6 °F 2.7 °F 8.6 °F 68% 30.36 in 10.0 mi SW 16.1 mph - N/A   Clear
7:57 AM 19.4 °F 5.0 °F 8.6 °F 63% 30.36 in 10.0 mi SW 16.1 mph - N/A   Clear
8:16 AM 19.4 °F 5.0 °F 8.6 °F 63% 30.36 in 10.0 mi SW 16.1 mph - N/A   Clear
8:37 AM 19.4 °F 5.0 °F 8.6 °F 63% 30.36 in 10.0 mi SW 16.1 mph - N/A   Clear
8:57 AM 21.2 °F 8.3 °F 8.6 °F 58% 30.36 in 10.0 mi SW 13.8 mph - N/A   Clear
9:17 AM 21.2 °F 10.1 °F 8.6 °F 58% 30.37 in 10.0 mi SSW 10.4 mph - N/A   Clear
9:37 AM 23.0 °F 11.7 °F 8.6 °F 54% 30.38 in 10.0 mi SSW 11.5 mph - N/A   Clear
9:57 AM 23.0 °F 10.6 °F 8.6 °F 54% 30.38 in 10.0 mi SSW 13.8 mph - N/A   Clear
10:17 AM 24.8 °F 14.0 °F 8.6 °F 50% 30.39 in 10.0 mi SW 11.5 mph 18.4 mph N/A   Clear
10:37 AM 26.6 °F 16.2 °F 8.6 °F 47% 30.39 in 10.0 mi SSW 11.5 mph - N/A   Clear
10:57 AM 26.6 °F 18.2 °F 10.4 °F 51% 30.39 in 10.0 mi SW 8.1 mph - N/A   Clear
11:17 AM 28.4 °F 19.1 °F 8.6 °F 43% 30.38 in 10.0 mi SW 10.4 mph - N/A   Clear
11:32 AM 28.4 °F 20.4 °F 10.4 °F 47% 30.37 in 10.0 mi SW 8.1 mph - N/A   Clear
11:57 AM 28.4 °F 19.1 °F 10.4 °F 47% 30.36 in 10.0 mi SSW 10.4 mph - N/A   Clear
12:16 PM 30.2 °F 20.8 °F 10.4 °F 44% 30.35 in 10.0 mi SW 11.5 mph - N/A   Clear
12:55 PM 30.2 °F 20.8 °F 10.4 °F 44% 30.33 in 10.0 mi SSW 11.5 mph 16.1 mph N/A   Clear
1:37 PM 30.2 °F 20.2 °F 12.2 °F 47% 30.31 in 10.0 mi SSW 12.7 mph 20.7 mph N/A   Clear
1:57 PM 30.2 °F 22.6 °F 12.2 °F 47% 30.31 in 10.0 mi South 8.1 mph - N/A   Clear
2:17 PM 30.2 °F 24.3 °F 10.4 °F 44% 30.30 in 10.0 mi SSW 5.8 mph - N/A   Clear
2:37 PM 32.0 °F 25.6 °F 12.2 °F 44% 30.30 in 10.0 mi SW 6.9 mph - N/A   Clear
2:57 PM 30.2 °F 22.6 °F 12.2 °F 47% 30.31 in 10.0 mi WSW 8.1 mph - N/A   Clear
3:17 PM 30.2 °F 23.4 °F 12.2 °F 47% 30.31 in 10.0 mi West 6.9 mph - N/A   Clear
3:37 PM 30.2 °F 26.7 °F 12.2 °F 47% 30.31 in 10.0 mi West 3.5 mph - N/A   Clear
3:57 PM 30.2 °F 25.4 °F 12.2 °F 47% 30.32 in 10.0 mi WSW 4.6 mph - N/A   Clear
4:17 PM 28.4 °F 19.7 °F 12.2 °F 51% 30.32 in 10.0 mi SW 9.2 mph - N/A   Clear
4:37 PM 28.4 °F 21.2 °F 12.2 °F 51% 30.32 in 10.0 mi SSW 6.9 mph - N/A   Clear
4:57 PM 26.6 °F 21.2 °F 12.2 °F 55% 30.31 in 10.0 mi SW 4.6 mph - N/A   Clear
5:17 PM 26.6 °F 20.0 °F 12.2 °F 55% 30.31 in 10.0 mi WSW 5.8 mph - N/A   Clear
5:37 PM 23.0 °F 14.7 °F 12.2 °F 63% 30.31 in 10.0 mi SW 6.9 mph - N/A   Clear
5:57 PM 23.0 °F 14.7 °F 12.2 °F 63% 30.31 in 10.0 mi SSW 6.9 mph - N/A   Clear
6:17 PM 21.2 °F 14.9 °F 12.2 °F 68% 30.31 in 10.0 mi SSW 4.6 mph - N/A   Clear
6:37 PM 21.2 °F 12.6 °F 12.2 °F 68% 30.31 in 10.0 mi SSW 6.9 mph - N/A   Clear
6:57 PM 21.2 °F 12.6 °F 12.2 °F 68% 30.31 in 10.0 mi SSW 6.9 mph - N/A   Clear
7:17 PM 21.2 °F 12.6 °F 12.2 °F 68% 30.32 in 10.0 mi SSW 6.9 mph - N/A   Clear
7:37 PM 23.0 °F - 10.4 °F 59% 30.32 in 10.0 mi Calm Calm - N/A   Clear
7:57 PM 23.0 °F - 8.6 °F 54% 30.32 in 10.0 mi Calm Calm - N/A   Clear
8:17 PM 23.0 °F - 6.8 °F 50% 30.32 in 10.0 mi Calm Calm - N/A   Clear
8:37 PM 21.2 °F 13.6 °F 12.2 °F 68% 30.32 in 10.0 mi SSW 5.8 mph - N/A   Clear
8:57 PM 21.2 °F 9.5 °F 12.2 °F 68% 30.31 in 10.0 mi SSW 11.5 mph - N/A   Clear
9:17 PM 21.2 °F 8.9 °F 12.2 °F 68% 30.31 in 10.0 mi SSW 12.7 mph - N/A   Clear
9:37 PM 19.4 °F 6.6 °F 12.2 °F 74% 30.31 in 10.0 mi SW 12.7 mph - N/A   Clear
9:57 PM 19.4 °F 7.2 °F 12.2 °F 74% 30.31 in 10.0 mi SSW 11.5 mph - N/A   Clear
10:17 PM 19.4 °F 7.9 °F 10.4 °F 68% 30.32 in 10.0 mi SW 10.4 mph - N/A   Clear
10:37 PM 21.2 °F 8.9 °F 10.4 °F 63% 30.31 in 10.0 mi SW 12.7 mph - N/A   Clear
10:57 PM 21.2 °F 9.5 °F 10.4 °F 63% 30.31 in 10.0 mi SSW 11.5 mph - N/A   Clear
11:17 PM 21.2 °F 10.1 °F 8.6 °F 58% 30.31 in 10.0 mi SSW 10.4 mph - N/A   Clear
11:37 PM 23.0 °F 13.1 °F 3.2 °F 43% 30.31 in 10.0 mi SW 9.2 mph - N/A   Clear
11:57 PM 23.0 °F 13.1 °F 1.4 °F 39% 30.30 in 10.0 mi SSW 9.2 mph - N/A   Clear